IRIDIUM 33 DEB

Satellite information

Favourite Embed

Satellite Type and Status

DEBRISIN ORBIT

Key statistics

Satellite IRIDIUM 33 DEB at a glance.

Uptime

10275

Days in orbit

Revolutions

≈ 14.5

Per day

Orbit

LEO

Low Earth Orbit

Inclination

86.3

Latest

Satellite identification and parameters

Extended collection of information and parameters for IRIDIUM 33 DEB.

Object identification

Identified? True

Debris? True

Object name: IRIDIUM 33 DEB

International designator: 1997-051ES

Object number (NORAD): 34350

Object ID (CCSDS): 34350

Country: UNITED STATES OF AMERICA (US)

Current information (Y/N): Y

RCS size: SMALL

Orbital parameters

Period: 99.638 minutes

Inclination: 86.3316 deg

SMA: 7119.389 km

Apoapsis: 754.89 km

Periapsis: 727.617 km

RAAN: 21.052 deg

Eccentricy: 0.0019154

Argument of periapsis: 278.9995 deg

Mean anomaly: 244.1823 deg

Mean motion: 14.45235805 rev/day

Mean motion (dot): 0.00001648 rev/day2

B* drag term: 0.00046384 1/REarth

Two-line elements (TLE)

Creation date: Oct. 31, 2025, 6:16 p.m.

Reference frame: TEME

Reference center: EARTH

Epoch: Oct. 31, 2025, 3:58 p.m. UTC

TLE line 0: 0 IRIDIUM 33 DEB

TLE line 1: 1 34350U 97051ES 25304.66559448 .00001648 00000-0 46384-3 0 9995

TLE line 2: 2 34350 86.3316 21.0520 0019154 278.9995 244.1823 14.45235805876858

Live tracking on map

Real-time ground track for satellite IRIDIUM 33 DEB.

In-orbit conjunctions

A list of the most updated potential collisions computed for object IRIDIUM 33 DEB.

Target Orbit TCA Probability of collision Miss distance Type
CZ-6A DEB LEO 2025-02-24 17:47:56 0.002326647 159.0 (m) DEBRIS
CZ-6A DEB LEO 2024-12-21 20:49:49 0.000117922 550.0 (m) DEBRIS

Associated space launch

Iridium provides global mobile telecommunications services using a constellation of 66 low earth orbit satellites in a 86.4° inclined orbit. Although 77 satellites were originally envisioned for the system and spawned the name based on the 77th element in the periodic table, the system has been scaled back. Motorola's Satellite Communications Group designed and manufactured the Iridium satellites with Lockheed Martin providing the LM-700A spacecraft buses.

IRIDIUM 33 DEB was lifted into orbit during the mission ‘Proton-K/17S40 | Iridium 27 to 33’, on board a Proton-K/17S40 space rocket.

The launch took place on Sept. 14, 1997, 1:36 a.m. from 81/23 (81L).

For more information about the launch, click the button.

Launch to space Proton-K/17S40 | Iridium 27 to 33
Proton-K/17S40 | Iridium 27 to 33

Agency: N/A

Status: Launch Successful

Launch date: Sept. 14, 1997, 1:36 a.m. UTC

Rocket: Proton-K/17S40

Launch pad: 81/23 (81L)

Location: Baikonur Cosmodrome, Republic of Kazakhstan

...

Latest news about this satellite

There are no fresh news available about this satellite. Check back as we update our databases every day.


Newsletter sign-up

Weekly statistics, charts and insights to help you stay on top of the space industry.